Location: ?????????
(41.2393°N, 22.9479°E)
Time: 05:01:19
(UTC+00:00)

BREEZE-M DEB (TANK) - Pass Details

Date: 17 November 2025
Orbit: 304 x 15917 km, 49.3° (Epoch: 09 December)

Event Time Altitude Azimuth Distance (km) Brightness Sun altitude
Rises 17:24:02 0° 287° (WNW) 2,302 6.6 -25.6°
Reaches altitude 10° 17:25:30 10° 298° (WNW) 1,696 5.5 -25.9°
Enters shadow 17:28:32 36° 4° (N) 1,253 4.0 -26.5°
